This demonstration page uses our WeatherBlox Daily Observations layout. Learn more.

Left ArrowRight Arrow

34.02893, -84.19858

Hourly Observations for August 10, 2022

Temp ( °F °C ) Dew Point ( °F °C ) Humidity (%) Winds ( mph kmh ) Pressure ( in mb ) Visibility ( mi km ) Precip ( " mm )
12:53 am 00:53 Mostly Clear 72 22.2 71 21.7 97 97 Calm 30.11 1020 10 16 0.05 1.27
1:53 am 01:53 Clear 73 22.8 71 21.7 94 94 NW 3 6 30.10 1019 10 16 0.00 0.00
2:53 am 02:53 Clear 72 22.2 71 21.7 97 97 Calm 30.10 1019 10 16 0.00 0.00
3:53 am 03:53 Clear 72 22.2 71 21.7 97 97 Calm 30.10 1019 10 16 0.00 0.00
4:53 am 04:53 Clear 72 22.2 71 21.7 97 97 S 7 11 30.12 1020 10 16 0.00 0.00
5:13 am 05:13 Partly Cloudy 72 22.2 71 21.7 97 97 S 6 9 30.15 1021 10 16 0.00 0.00
5:22 am 05:22 Mostly Cloudy 72 22.2 71 21.7 97 97 S 7 11 30.15 1021 10 16 0.00 0.00
5:53 am 05:53 Cloudy 71 21.7 70 21.1 96 96 VRB 6 9 30.14 1021 10 16 0.00 0.00
6:04 am 06:04 Cloudy 71 21.7 70 21.1 96 96 S 7 11 30.16 1021 10 16 0.00 0.00
6:23 am 06:23 Mostly Clear 71 21.7 70 21.1 96 96 SSW 6 9 30.16 1021 10 16 0.00 0.00
6:32 am 06:32 Mostly Clear 71 21.7 70 21.1 96 96 S 5 7 30.16 1021 10 16 0.00 0.00
6:53 am 06:53 Mostly Cloudy 71 21.7 69 20.6 93 93 S 7 11 30.15 1021 10 16 0.00 0.00
7:34 am 07:34 Mostly Sunny 71 21.7 70 21.1 96 96 SSW 3 6 30.18 1022 10 16 0.00 0.00
7:53 am 07:53 Sunny 72 22.2 70 21.1 93 93 SSW 5 7 30.17 1022 10 16 0.00 0.00
8:53 am 08:53 Cloudy 73 22.8 70 21.1 90 90 SSW 6 9 30.17 1022 10 16 0.01 0.25
9:53 am 09:53 Mostly Cloudy 73 22.8 71 21.7 94 94 WSW 6 9 30.18 1022 10 16 0.01 0.25
10:37 am 10:37 Mostly Cloudy 77 25 73 22.8 88 88 SSW 5 7 30.18 1022 10 16 0.00 0.00
10:53 am 10:53 Partly Cloudy 78 25.6 74 23.3 87 87 SSW 6 9 30.17 1022 10 16 0.00 0.00
11:53 am 11:53 Partly Cloudy 79 26.1 73 22.8 82 82 SSW 5 7 30.18 1022 10 16 0.00 0.00
12:02 pm 12:02 Mostly Cloudy 79 26.1 73 22.8 82 82 Calm 30.18 1022 10 16 0.00 0.00
12:30 pm 12:30 Partly Cloudy 80 26.7 73 22.8 79 79 Calm 30.18 1022 10 16 0.00 0.00
12:44 pm 12:44 Mostly Cloudy 82 27.8 73 22.8 74 74 W 3 6 30.18 1022 10 16 0.00 0.00
12:53 pm 12:53 Mostly Cloudy 82 27.8 71 21.7 69 69 WSW 6 9 30.17 1022 10 16 0.00 0.00
1:53 pm 13:53 Mostly Cloudy with Nearby Thunderstorms 80 26.7 73 22.8 79 79 SSE 7 11 30.15 1021 10 16 0.00 0.00
2:09 pm 14:09 Mostly Cloudy with Light Rain 81 27.2 73 22.8 77 77 VRB 6 9 30.15 1021 10 16 0.01 0.13
2:28 pm 14:28 Partly Cloudy with Nearby Thunderstorms 81 27.2 72 22.2 74 74 S 6 9 30.14 1021 10 16 0.01 0.13
2:43 pm 14:43 Sunny 83 28.3 72 22.2 70 70 SSE 3 6 30.13 1020 10 16 0.01 0.13
2:53 pm 14:53 Sunny 83 28.3 72 22.2 70 70 SSW 5 7 30.12 1020 10 16 0.01 0.13
3:49 pm 15:49 Sunny with Nearby Thunderstorms 84 29 73 23 70 70 Calm 30.10 1019 10 16 0.00 0.00
3:53 pm 15:53 Sunny with Nearby Thunderstorms 84 28.9 72 22.2 67 67 Calm 30.10 1019 10 16 0.00 0.00
4:22 pm 16:22 Mostly Cloudy with Heavy Rain 75 23.9 69 20.6 82 82 NW 13 20 30.11 1020 2 3 0.11 2.79
4:36 pm 16:36 Cloudy with Strong Thunderstorms 74 23.3 71 21.7 91 91 NNW 6 9 30.11 1020 0 0 0.42 10.67
4:45 pm 16:45 Cloudy with Strong Thunderstorms 73 22.8 70 21.1 90 90 Calm 30.10 1019 1 2 0.48 12.19
4:53 pm 16:53 Cloudy with Thunderstorms 75 23.9 71 21.7 88 88 Calm 30.09 1019 6 10 0.48 12.19
5:05 pm 17:05 Partly Cloudy 79 26.1 72 22.2 79 79 Calm 30.09 1019 10 16 0.01 0.13
5:53 pm 17:53 Sunny 81 27.2 73 22.8 77 77 Calm 30.09 1019 10 16 0.01 0.13
6:53 pm 18:53 Sunny 82 27.8 72 22.2 72 72 Calm 30.08 1019 10 16 0.00 0.00
7:53 pm 19:53 Sunny 79 26.1 74 23.3 85 85 Calm 30.08 1019 10 16 0.00 0.00
8:53 pm 20:53 Mostly Clear 75 23.9 73 22.8 94 94 Calm 30.09 1019 10 16 0.00 0.00
9:35 pm 21:35 Cloudy with Heavy Rain 74 23.3 71 21.7 91 91 SSE 15 24 30.11 1020 2 2 0.25 6.35
9:40 pm 21:40 Cloudy with Heavy Rain 71 21.7 68 20 90 90 VRB 6 9 30.13 1020 1 1 0.40 10.16
9:45 pm 21:45 Cloudy with Rain 70 21.1 68 20 93 93 VRB 5 7 30.13 1020 2 2 0.41 10.41
9:53 pm 21:53 Cloudy with Thunderstorms 71 21.7 69 20.6 93 93 SE 5 7 30.13 1020 10 16 0.41 10.41
10:11 pm 22:11 Mostly Cloudy with Nearby Thunderstorms 71 21.7 70 21.1 96 96 E 3 6 30.13 1020 8 13 0.01 0.25
10:39 pm 22:39 Mostly Clear 71 21.7 70 21.1 96 96 Calm 30.13 1020 9 14 0.01 0.25
10:53 pm 22:53 Clear 72 22.2 70 21.1 93 93 Calm 30.11 1020 10 16 0.01 0.25
11:53 pm 23:53 Mostly Clear with Light Rain 73 22.8 71 21.7 94 94 Calm 30.10 1019 9 14 0.01 0.25

Powered by AerisWeather